PulseSat

PulseSat

MOLNIYA 3-40

Last updated on Feb. 17, 2019, 3:06 a.m. UTC

1 21196U 91022A   19046.65610014 -.00001008  00000-0  00000+0 0  9995
2 21196  63.8073 105.0741 6826633 286.7632  12.9380  2.03023345204937
UTC
Height (km)
Latitude
Longitude
Inclination
Orbital Period

Next 30 passes for location: Hong Kong

Rise time Rise Azimuth (degrees) Set time Set Azimuth (degrees) Duration Max altitude (degrees)

No matching passes for this satellites

PulseSat

PulseSat is the new satellites software and hardware trackering solution by Pulsely.
Satellite Two Line Element Set source: US Air Force Space Command

Download PulseSat for iOS
© 2017 Pulsely Limited